Regional Weather Roundup
Issued by NWS

Home | Current Version | Previous Version | Graphics & Text | Print | Product List | Glossary On
Versions: 1 2 3 4 5 6 7 8 9 10 11 12 13 14 15 16 17 18 19 20 21 22 23 24 25 26
410
ASUS45 KTFX 220610
RWRMT
MONTANA REGIONAL WEATHER ROUNDUP
NATIONAL WEATHER SERVICE GREAT FALLS MT
1200 AM MDT FRI MAY 22 2015

NOTE: "FAIR" INDICATES FEW OR NO CLOUDS BELOW 12000 FEET WITH NO
SIGNIFICANT WEATHER AND/OR OBSTRUCTIONS TO VISIBILITY.

MTZ001>007-043-220700-
WEST OF THE DIVIDE

CITY           SKY/WX    TMP DP  RH WIND       PRES   REMARKS
KALISPELL      CLEAR     51  34  52 SW5       29.89R
MISSOULA       PTCLDY    58  43  57 E7        29.92S
BUTTE          CLEAR     42  38  85 SE5       30.00F
MULLAN PASS    PTCLDY    49  38  65 S7        29.98R
DEER LODGE       N/A     46  39  76 CALM      30.01S
EUREKA           N/A     61  37  41 SW3       29.88R
HAMILTON         N/A     50  45  81 E7        29.92S
LIBBY            N/A     57  37  47 SE3       29.86R
RONAN            N/A     57  45  64 NE1       29.95R
$$

MTZ008-052>055-220700-
SOUTHWEST MONTANA

CITY           SKY/WX    TMP DP  RH WIND       PRES   REMARKS
BOZEMAN        CLEAR     48  40  73 NW6       29.96S
DILLON         PTCLDY    50  42  74 NE3       29.97R
W YELLOWSTONE  PTCLDY    37  36  93 CALM      30.03S
THREE FORKS      N/A     48  48 100 CALM      29.96S
TWIN BRIDGES     N/A     52  40  63 N8        29.96S
$$

MTZ009-010-012-014-046-048-049-054-220700-
EAST SLOPES AND CENTRAL MONTANA

CITY           SKY/WX    TMP DP  RH WIND       PRES   REMARKS
CUT BANK       CLEAR     52  33  48 E9        29.97S
GREAT FALLS    CLEAR     50  41  71 E3        29.95S
MALMSTROM AFB  PTCLDY    51  43  74 SE8       29.95S
HELENA         CLEAR     53  47  79 SW5       29.95F
CONRAD           N/A     51  38  61 NE1       29.99S
$$

MTZ011-013-016-021-045-047-050-051-220700-
NORTH CENTRAL MONTANA

CITY           SKY/WX    TMP DP  RH WIND       PRES   REMARKS
HAVRE          CLEAR     47  33  58 E12       29.99S
LEWISTOWN      CLEAR     46  36  68 E6        30.01S
N BAR RANCH    FAIR      50  37  62 CALM      30.05S
CHINOOK          N/A     50  34  53 E8        30.01F
FORT BENTON      N/A     57  34  41 E10       29.96S
$$

MTZ017>020-022>027-061-062-220700-
NORTHEAST MONTANA

CITY           SKY/WX    TMP DP  RH WIND       PRES   REMARKS
GLASGOW        CLEAR     51  34  52 E10       30.07R
JORDAN           N/A     53  28  38 SE10      30.05S
SIDNEY         CLEAR     52  34  50 CALM      30.11S
WOLF POINT     CLEAR     49  37  63 NE5       30.09S
MALTA            N/A     49  32  52 CALM      30.01S
PLENTYWOOD       N/A     55  34  44 E10       30.11S
POPLAR           N/A     55  36  47 E5        30.10R
$$

MTZ028>42-056>058-220700-
SOUTHCENTRAL AND SOUTHEAST MONTANA

CITY           SKY/WX    TMP DP  RH WIND       PRES   REMARKS
BAKER          CLEAR     41  32  70 SE8       30.12F
BILLINGS       CLEAR     52  40  63 NE8       29.97F
LIVINGSTON     PTCLDY    47  41  80 SE3       29.98F
MILES CITY     CLEAR     57  29  34 SE13      30.05F
BIG TIMBER       N/A     48  43  81 CALM      30.01S
FORSYTH          N/A     54  30  40 SE8       30.02S
LAUREL           N/A     52  36  54 N2        29.96F
ROUNDUP          N/A     52  37  56 CALM      29.92F
$$

REGIONAL REPORTS...DAKOTAS

CITY           SKY/WX    TMP DP  RH WIND       PRES   REMARKS
WILLISTON      CLEAR     56  35  45 E5        30.12R
MINOT          CLEAR     52  37  56 SE6       30.13R
DICKINSON      CLEAR     46  34  62 S8        30.12S
BEACH          MOCLDY    41  37  87 S8        30.13F
CROSBY         FAIR      54  37  54 SE9       30.13S
WATFORD CITY   FAIR      48  34  57 CALM      30.11R
BISMARCK       PTCLDY    53  42  66 NE7       30.15R
GRAND FORKS    CLEAR     45  40  82 CALM      30.13S
FARGO          CLEAR     49  41  74 CALM      30.13S
BUFFALO SD       N/A     48  30  49 E10       30.07S
RAPID CITY     CLOUDY    49  44  83 E6        30.13S
$$

REGIONAL REPORTS...WYOMING/IDAHO/WASHINGTON

CITY           SKY/WX    TMP DP  RH WIND       PRES   REMARKS
GILLETTE       CLOUDY    50  42  74 SE16      30.08S
SHERIDAN       MOCLDY    51  42  71 SE17G25   30.00S
BUFFALO WY     CLOUDY    48  42  80 S15       30.06S
CODY           CLOUDY    48  43  81 SW14      30.01R
YELLOWSTONE LA   N/A     34  31  88 CALM      30.09S
IDAHO FALLS    CLOUDY    52  46  80 SW8       29.95F
SALMON         CLOUDY    54  45  71 CALM      29.93R
BOISE          MOCLDY    59  47  64 SW6       29.85R
SPOKANE        MOCLDY    64  51  62 S7        29.82S
$$

REGIONAL REPORTS...ALBERTA

CITY           SKY/WX    TMP DP  RH WIND       PRES   REMARKS
EDMONTON       CLEAR     52  30  43 SE3       29.94S
CALGARY        PTCLDY    54  28  37 S5        29.98S
LETHBRIDGE     CLEAR     45  32  61 SE9       29.96S
MEDICINE HAT   CLEAR     50  28  43 E7        30.00S
$$

REGIONAL REPORTS...SASKATCHEWAN

CITY           SKY/WX    TMP DP  RH WIND       PRES   REMARKS
SWIFT CURRENT  CLEAR     50  32  50 S13       30.08R
REGINA         CLEAR     59  30  33 CALM      30.10S
SASKATOON      CLEAR     55  30  38 S8        30.07R
$$



USA.gov is the U.S. government's official web portal to all federal, state and local government web resources and services.